This is the latest recevied weather packets stored in our database for station/object LU4DOV-9. If no packets are shown the sender has not sent any weather packets the latest 10 day(s).
| Time | Temp. | Humidity | Pressure | Rain* | Wind** | Luminosity | Snow |
|---|---|---|---|---|---|---|---|
| 1788481341 | 17.78° C | 46% | - | - | 0 m/s | - | - |
| 1788480741 | 18.33° C | 43% | - | - | 0 m/s | - | - |
| 1788480141 | 18.33° C | 43% | - | - | 0 m/s | - | - |
| 1788479541 | 18.33° C | 43% | - | - | 0 m/s | - | - |
| 1788478941 | 18.33° C | 43% | - | - | 0 m/s | - | - |
| 1788478341 | 18.33° C | 43% | - | - | 0 m/s | - | - |
| 1788477741 | 18.33° C | 43% | - | - | 0 m/s | - | - |
| 1788477141 | 18.89° C | 36% | - | - | 0 m/s | - | - |
| 1788476541 | 18.89° C | 36% | - | - | 0 m/s | - | - |
| 1788475941 | 18.89° C | 36% | - | - | 0 m/s | - | - |
| 1788475341 | 18.89° C | 36% | - | - | 0 m/s | - | - |
| 1788474741 | 18.89° C | 36% | - | - | 0 m/s | - | - |
| 1788474141 | 20° C | 30% | - | - | 0 m/s | - | - |
| 1788473541 | 20° C | 30% | - | - | 0 m/s | - | - |
| 1788472941 | 20° C | 30% | - | - | 0 m/s | - | - |
| 1788472341 | 20° C | 30% | - | - | 0 m/s | - | - |
| 1788471741 | 20° C | 30% | - | - | 0 m/s | - | - |
| 1788471141 | 20° C | 30% | - | - | 0 m/s | - | - |
| 1788470541 | 20.56° C | 36% | - | - | 0 m/s | - | - |
| 1788469940 | 20.56° C | 36% | - | - | 0 m/s | - | - |
| 1788469340 | 20.56° C | 36% | - | - | 0 m/s | - | - |
| 1788468741 | 20.56° C | 36% | - | - | 0 m/s | - | - |
| 1788468140 | 20.56° C | 36% | - | - | 0 m/s | - | - |
| 1788467540 | 20.56° C | 36% | - | - | 0 m/s | - | - |
| 1788466940 | 21.11° C | 38% | - | - | 0 m/s | - | - |
* Rain since midnight (hover to see other rain measurements)
** Current wind speed in m/s (hover to see current wind gust speed)